#timestamp,LO_Frequency,Hit 
1502532015.5,286047006.3,N
1502532035.4,286047001.5,N
1502532055.2,286047002.2,N
1502532075.0,286047004.4,N
1502532075.9,286047004.4,N
1502532095.8,286047002.0,N
1502532115.6,286046999.3,N
1502532135.4,286046995.2,N
1502532155.3,286046995.8,N
1502532175.1,286046997.9,N
1502532176.0,286046997.9,N
1502532195.8,286046999.5,N
1502532215.7,286046999.4,N
1502532235.5,286046999.7,N
1502532255.3,286047002.6,N
1502532275.1,286046999.7,N
1502532295.9,286047000.4,N
1502532315.7,286047004.0,N
1502532335.5,286047004.0,N
1502532355.4,286046998.8,N
1502532375.5,286047000.2,N
1502532395.4,286046998.8,N
1502532415.2,286046999.7,N
1502532435.0,286046999.0,N
1502532435.9,286046999.0,N
1502532455.8,286046999.4,N
1502532475.6,286047002.1,N
1502532495.4,286047002.5,N
1502532515.3,286046999.2,N
1502532535.1,286046999.7,N
1502532536.0,286046999.7,N
1502532555.8,286047002.5,N
1502532575.8,286047002.7,N
1502532595.6,286046998.9,N
1502532615.4,286046996.4,N
1502532635.3,286046993.9,N
1502532655.1,286046994.0,N
1502532675.8,286046995.8,N
1502532695.4,286046997.1,N
1502532715.2,286046999.0,N
1502532735.1,286047002.5,N
1502532736.0,286047002.5,N
1502532755.8,286047004.0,N
1502532775.6,286047000.4,N
1502532795.5,286047000.3,N
1502532815.3,286046998.8,N
1502532835.1,286047001.7,N
1502532855.9,286046998.1,N
1502532875.7,286046999.2,N
1502532895.5,286047000.8,N
1502532915.3,286047004.2,N
1502532935.4,286046999.1,N
1502532955.2,286046999.5,N
1502532975.0,286047000.0,N
1502532975.9,286047000.0,N
1502532995.8,286046997.3,N
1502533015.6,286046998.8,N
1502533035.4,286047001.0,N
1502533055.3,286047002.8,N
1502533075.1,286047004.2,N
1502533095.8,286047002.6,N
1502533115.7,286047000.8,N
1502533135.5,286046999.0,N
1502533155.3,286046998.5,N
1502533175.2,286047000.9,N
1502533195.9,286047002.6,N
1502533215.7,286047000.2,N
1502533235.6,286046998.8,N
1502533255.4,286046993.4,P
1502533275.2,286046995.3,N
1502533295.1,286046995.4,N
1502533296.0,286046995.4,N
1502533315.8,286046996.0,N
1502533335.6,286046992.8,P
1502533355.5,286046997.1,N
1502533375.3,286047000.4,N
1502533395.1,286047001.5,N
1502533415.9,286047002.1,N
1502533435.7,286047001.3,N
1502533455.5,286046997.0,N
1502533475.3,286046999.2,N
1502533495.1,286046998.6,N
1502533515.8,286046999.8,N
1502533535.7,286046999.9,N
1502533555.5,286047002.7,N
1502533575.3,286047007.6,N
1502533595.2,286047003.4,N
1502533615.9,286047004.1,N
1502533635.7,286047003.4,N
1502533655.6,286047002.9,N
1502533675.4,286047005.5,N
1502533695.2,286047007.0,N
1502533715.1,286047004.7,N
1502533716.0,286047004.7,N
1502533735.8,286047003.7,N
1502533755.6,286047001.6,N
1502533775.5,286047002.8,N
1502533795.3,286047003.8,N
1502533815.1,286047000.6,N
1502533835.8,286047003.6,N
1502533855.7,286047003.1,N
1502533875.5,286047006.9,N
1502533895.3,286047009.8,N
1502533915.2,286047008.8,N
1502533935.6,286047010.3,P
1502533955.4,286047006.7,N
1502533975.2,286047006.3,N
1502533995.1,286047007.4,N
1502533996.0,286047007.4,P
1502534015.8,286046996.7,P
1502534035.6,286046995.9,N
1502534055.5,286046994.6,N
1502534075.3,286046992.2,N
1502534095.1,286046991.4,N
1502534115.9,286046990.7,N
1502534135.7,286046992.5,N
1502534155.5,286046994.3,N
1502534175.4,286046993.9,N
1502534195.2,286046994.5,N
1502534215.0,286046992.4,N
1502534215.9,286046992.4,N
1502534235.8,286046991.2,N
1502534255.6,286046992.5,N
1502534275.4,286046990.7,N
1502534295.3,286046990.9,N
1502534315.1,286046989.0,N
1502534316.0,286046989.0,N
1502534335.8,286046989.2,N
1502534355.7,286046987.6,N
1502534375.5,286046986.2,N
1502534395.3,286046986.2,N
1502534415.2,286046986.4,N
1502534435.9,286046986.9,N
1502534455.7,286046988.1,N
1502534475.6,286046987.7,N
1502534495.4,286046989.3,N
1502534515.2,286046988.2,N
1502534535.0,286046987.9,N
1502534535.9,286046987.9,N
1502534555.8,286046986.7,P
1502534575.6,286046994.4,N
1502534595.5,286046995.8,N
1502534615.3,286046995.3,N
1502534635.1,286046993.7,N
1502534655.8,286046995.5,N
1502534675.7,286046995.4,N
1502534695.5,286046998.0,N
1502534715.3,286046999.6,N
1502534735.2,286046999.9,N
1502534755.9,286046999.2,N
1502534775.7,286046998.2,N
1502534795.6,286047001.2,N
1502534815.4,286046999.0,N
1502534835.2,286046996.7,N
1502534855.1,286046996.8,N
1502534856.0,286046996.8,N
1502534875.8,286046999.1,N
1502534895.6,286047001.1,N
1502534915.5,286046999.4,N
1502534935.3,286046997.7,N
1502534955.1,286046997.3,N
1502534975.9,286046993.3,N
1502534995.7,286047000.4,N
1502535015.5,286046993.4,N
1502535035.3,286046995.6,N
1502535055.2,286046997.8,N
1502535075.0,286046999.0,N
1502535075.9,286046999.0,N
1502535095.7,286047000.2,N
1502535115.6,286047003.5,N
1502535135.4,286047003.2,N
1502535155.2,286047002.1,N
1502535175.1,286047004.7,N
1502535176.0,286047004.7,N
1502535195.8,286047002.0,N
1502535215.6,286046999.5,N
1502535235.5,286046997.7,N
1502535255.3,286046998.0,N
1502535275.1,286046995.2,N
1502535295.9,286046995.3,N
1502535315.7,286046995.2,N
1502535335.5,286046992.3,N
1502535355.4,286046993.5,N
1502535375.2,286046991.8,N
1502535395.0,286046993.6,N
1502535395.9,286046993.6,N
1502535415.8,286046994.6,N
1502535435.6,286046993.5,N
1502535455.4,286047000.9,N
1502535475.2,286046998.9,N
1502535495.1,286047002.7,N
1502535496.0,286047002.7,N
1502535515.8,286047006.0,N
1502535535.6,286047003.1,N
1502535555.5,286047001.8,N
1502535575.3,286047002.7,N
1502535595.1,286047002.3,N
